Volver al catálogo

COSMOS 1691 DEB

ActivoPO
NORAD 43318·DEBRIS·🇷🇺 Russia

Lanzado Oct 9, 1985 desde Plesetsk Cosmodrome

Loading…

Próximos Pases (próximas 24 horas)

TLE

EnvejeciendoSource: Space-Track

Época: Sep 4, 2026, 13:42 UTC

1 43318U 85094AC  26247.57114767  .00000247  00000-0  99796-3 0  9990
2 43318  82.5844 346.2558 0014407   2.6245 357.4931 12.82633033554838

Sigue COSMOS 1691 DEB en tiempo real con AllMySat

Download on the App Store